Find Cubesat-OSCAR-55

NORAD ID: 27844 Int'l Des: 2003-031 Owner: TIT Country: J operational
LEOCIRCULARRETROGRADESSO

リアルタイム位置

3D地球を読み込み中...

Cubesat-OSCAR-55について

説明を読み込み中...

次回通過

Passes for default location (London). Set your location on the main map for personalized predictions.

高度履歴

Loading altitude history...

軌道要素

1 27844U 03031E 26105.93711571 .00000183 00000-0 98247-4 0 9996
2 27844 98.6764 115.2749 0009763 13.8653 346.2793 14.24296359182816
Epoch: Apr 15, 2026 • Age: 5 hours

現在のステータス

高度 817.9 km
速度 7.45 km/s
衛星直下点 65.40°N, 166.09°W
打ち上げ日 Jun 30, 2003
運用期間 22.7 years
タイプ other

技術仕様

分類 Payload
質量 1.00 kg
乾燥質量 1.00 kg
総質量 1.00 kg
長さ 0.10 m
直径 0.10 m
スパン 0.10 m
形状 Box
製造者 TIT
バスタイプ Cubesat 1U
フェーズステータス In Orbit
所有者/国 TIT/J

Most Searched